Погода в Унже

Россия / Костромская область     58°01′05″N   44°00′45″E
темп.,
°C
ветер,
м/с
пор.,
м/с
влажн.,
%
обл.,
%
осадки,
мм/ч
давл.,
гПа
погр.,
м
15 апреля, чт
чт1500:00+9ююз2491100 0.0 101978
03:00+8ююз228698 0.0 101917
06:00+6ссз0096100 0.0 101913
09:00+12с237153 0.0 1019312
12:00+14ссв5572100 0.0 1020837
15:00+10ссв5881100 0.0 1022673
18:00+8св51184100 0.0 1023701
21:00+6св51484100 0.0 1025613
16 апреля, пт
пт1600:00+5св51387100 0.0 1026634
03:00+4св5128189 0.0 1027533
06:00+3всв5137587 0.0 1028521
09:00+6всв6105446 0.0 1029693
12:00+10всв57425 0.0 10291034
15:00+11всв564018 0.0 10281198
18:00+9всв48525 0.0 1029620
21:00+4всв310745 0.0 1030239
17 апреля, сб
сб1700:00+2всв29815 0.0 1030192
03:00+1св38845 0.0 1031172
06:00+1всв39805 0.0 1032227
09:00+7всв47500 0.0 1031732
12:00+11всв46400 0.0 10301353
15:00+12всв45382 0.0 10291489
18:00+10св36505 0.0 1029341
21:00+5св24700 0.0 102960
18 апреля, вс
вс1800:00+3св26770 0.0 1029107
03:00+2св27835 0.0 1029138
06:00+2св27828 0.0 1029180
09:00+8св355646 0.0 1028702
12:00+11св5645100 0.0 10281468
15:00+11св6655100 0.0 10281373
18:00+6всв5868100 0.0 1030835
21:00+4всв3106999 0.0 1031585
19 апреля, пн
пн1900:00+2всв4115778 0.0 1032534
03:000всв411650 0.0 1033423
06:000всв411640 0.0 1034528
09:00+4в57380 0.0 10351329
12:00+7в57290 0.0 10351686
15:00+8в46323 0.0 10341835
18:00+7в36415 0.0 1034630
21:00+1в24610 0.0 103662